This is the latest recevied weather packets stored in our database for station/object YO4CIL-MG. If no packets are shown the sender has not sent any weather packets the latest 10 day(s).
| Time | Temp. | Humidity | Pressure | Rain* | Wind** | Luminosity | Snow |
|---|---|---|---|---|---|---|---|
| 1777091113 | 10.56° C | 61% | 1015.4 hPa | - | - | - | - |
| 1777090513 | 9.44° C | 62% | 1015.3 hPa | - | - | - | - |
| 1777089913 | 9.44° C | 63% | 1015.3 hPa | - | - | - | - |
| 1777089313 | 8.89° C | 63% | 1015.2 hPa | - | - | - | - |
| 1777088713 | 8.89° C | 63% | 1015.2 hPa | - | - | - | - |
| 1777088113 | 8.89° C | 63% | 1015.2 hPa | - | - | - | - |
| 1777087513 | 9.44° C | 63% | 1015.1 hPa | - | - | - | - |
| 1777086913 | 9.44° C | 63% | 1015 hPa | - | - | - | - |
| 1777086313 | 8.89° C | 63% | 1015 hPa | - | - | - | - |
| 1777085713 | 9.44° C | 62% | 1014.9 hPa | - | - | - | - |
| 1777085113 | 9.44° C | 63% | 1014.8 hPa | - | - | - | - |
| 1777084513 | 9.44° C | 63% | 1014.8 hPa | - | - | - | - |
| 1777083913 | 8.89° C | 65% | 1014.8 hPa | - | - | - | - |
| 1777083313 | 8.89° C | 65% | 1014.7 hPa | - | - | - | - |
| 1777082713 | 9.44° C | 65% | 1014.8 hPa | - | - | - | - |
| 1777082113 | 9.44° C | 66% | 1014.6 hPa | - | - | - | - |
| 1777081513 | 9.44° C | 66% | 1014.6 hPa | - | - | - | - |
| 1777080913 | 10° C | 66% | 1014.5 hPa | - | - | - | - |
| 1777080313 | 10° C | 65% | 1014.5 hPa | - | - | - | - |
| 1777079713 | 10° C | 66% | 1014.5 hPa | - | - | - | - |
| 1777079113 | 10° C | 65% | 1014.3 hPa | - | - | - | - |
| 1777078513 | 10° C | 66% | 1014.3 hPa | - | - | - | - |
| 1777077913 | 10.56° C | 65% | 1014.3 hPa | - | - | - | - |
| 1777077313 | 10° C | 66% | 1014.2 hPa | - | - | - | - |
| 1777076713 | 10° C | 67% | 1014.1 hPa | - | - | - | - |
* Rain since midnight (hover to see other rain measurements)
** Current wind speed in m/s (hover to see current wind gust speed)